Вернуться в каталог

FREGAT DEB

АктивенLEO
NORAD 45847·DEBRIS·🇷🇺 Russia

Запущен Jul 18, 2011 с Baikonur Cosmodrome

Loading…

Ближайшие Пролёты (ближайшие 24 часа)

TLE

СвежийSource: Space-Track

Эпоха: Sep 14, 2026, 01:27 UTC

1 45847U 11037CH  26257.06096863  .00131566  00000-0  67506-2 0  9998
2 45847  51.3957 258.0823 0808099   1.6436 358.6865 13.84642821274476

Отслеживайте FREGAT DEB в реальном времени с AllMySat

Download on the App Store